Duncan, OK

10:05 AM CDT on May 28, 2017 (GMT -0500)
Halliburton

Weather History for KDUC - August, 2014

Change the Weather History Date:

Sunday, August 17, 2014

  Actual Average (KLAW) Record (KLAW)
Temperature  
Mean Temperature 84 °F -  
Max Temperature 95 °F 95 °F 109 °F (1951)
Min Temperature 73 °F 71 °F 58 °F (1973)
Cooling Degree Days 19    
Growing Degree Days 34 (Base 50)    
Moisture  
Dew Point 70 °F    
Average Humidity 65    
Maximum Humidity 88    
Minimum Humidity 36    
Precipitation  
Precipitation 0.00 in - - ()
Sea Level Pressure  
Sea Level Pressure 29.93 in    
Wind  
Wind Speed 4 mph (SSE)    
Max Wind Speed 13 mph    
Max Gust Speed 18 mph    
Visibility 10 miles    
Events      
Averages and records for this station are not official NWS values.
T = Trace of Precipitation, MM = Missing Value Source: NWS Daily Summary

Daily Weather History Graph

Daily Weather History Graph

Search for Another Location

Airport or City:

Trip Planner

Search our weather history database for the weather conditions in past years. The results will help you decide how hot, cold, wet, or windy it might be!

Date:

Astronomy

Aug. 17, 2014 Rise Set
Actual Time 6:54 AM CDT 8:16 PM CDT
Civil Twilight 6:27 AM CDT 8:43 PM CDT
Nautical Twilight 5:56 AM CDT 9:14 PM CDT
Astronomical Twilight 5:22 AM CDT 9:47 PM CDT
Moon 12:21 AM CDT (8/17) 2:21 PM CDT (8/17)
Length of Visible Light 14h 15m
Length of Day
13h 22m
Waning Gibbous, 48% of the Moon is Illuminated
Aug 17
Waning Gibbous
Aug 25
New
Sep 2
First Quarter
Sep 8
Full
Sep 15
Last Quarter

Hourly Weather History & Observations

Time (CDT) Temp. Heat Index Dew Point Humidity Pressure Visibility Wind Dir Wind Speed Gust Speed Precip Events Conditions
12:15 AM 80.6 °F 82.7 °F 66.2 °F 61% 29.93 in 10.0 mi SSE 8.1 mph - N/A   Clear
12:55 AM 78.8 °F - 68.0 °F 69% 29.92 in 10.0 mi South 8.1 mph - N/A   Clear
1:15 AM 77.0 °F - 68.0 °F 74% 29.92 in 10.0 mi Calm Calm - N/A   Clear
1:35 AM 77.0 °F - 69.8 °F 78% 29.92 in 10.0 mi SSE 4.6 mph - N/A   Clear
1:55 AM 77.0 °F - 69.8 °F 78% 29.92 in 10.0 mi Calm Calm - N/A   Clear
2:15 AM 77.0 °F - 69.8 °F 78% 29.92 in 10.0 mi Calm Calm - N/A   Clear
2:35 AM 77.0 °F - 69.8 °F 78% 29.91 in 10.0 mi Calm Calm - N/A   Clear
2:55 AM 77.0 °F - 69.8 °F 78% 29.91 in 10.0 mi Calm Calm - N/A   Clear
3:15 AM 77.0 °F - 69.8 °F 78% 29.91 in 10.0 mi Calm Calm - N/A   Clear
3:35 AM 75.2 °F - 69.8 °F 83% 29.91 in 10.0 mi Calm Calm - N/A   Clear
3:55 AM 75.2 °F - 68.0 °F 78% 29.91 in 10.0 mi Calm Calm - N/A   Clear
4:15 AM 75.2 °F - 69.8 °F 83% 29.91 in 10.0 mi Calm Calm - N/A   Clear
4:35 AM 75.2 °F - 69.8 °F 83% 29.91 in 10.0 mi Calm Calm - N/A   Clear
4:55 AM 75.2 °F - 69.8 °F 83% 29.91 in 10.0 mi Calm Calm - N/A   Scattered Clouds
5:15 AM 75.2 °F - 69.8 °F 83% 29.92 in 10.0 mi Calm Calm - N/A   Scattered Clouds
5:35 AM 75.2 °F - 69.8 °F 83% 29.92 in 10.0 mi Calm Calm - N/A   Scattered Clouds
5:55 AM 73.4 °F - 69.8 °F 88% 29.93 in 10.0 mi Calm Calm - N/A   Clear
6:15 AM 73.4 °F - 69.8 °F 88% 29.93 in 10.0 mi Calm Calm - N/A   Clear
6:35 AM 73.4 °F - 69.8 °F 88% 29.93 in 10.0 mi Calm Calm - N/A   Clear
6:55 AM 73.4 °F - 69.8 °F 88% 29.93 in 10.0 mi Calm Calm - N/A   Clear
7:15 AM 73.4 °F - 69.8 °F 88% 29.93 in 10.0 mi Calm Calm - N/A   Clear
7:35 AM 73.4 °F - 69.8 °F 88% 29.93 in 10.0 mi Calm Calm - N/A   Clear
7:55 AM 73.4 °F - 69.8 °F 88% 29.94 in 10.0 mi Calm Calm - N/A   Clear
8:15 AM 77.0 °F - 71.6 °F 83% 29.94 in 10.0 mi Calm Calm - N/A   Clear
8:35 AM 78.8 °F - 71.6 °F 78% 29.95 in 10.0 mi SSE 8.1 mph - N/A   Clear
8:55 AM 80.6 °F 84.6 °F 71.6 °F 74% 29.95 in 10.0 mi SSE 11.5 mph - N/A   Clear
9:15 AM 82.4 °F 87.2 °F 71.6 °F 70% 29.96 in 10.0 mi SSE 9.2 mph 17.3 mph N/A   Clear
9:35 AM 82.4 °F 87.2 °F 71.6 °F 70% 29.96 in 10.0 mi South 12.7 mph - N/A   Clear
9:55 AM 84.2 °F 89.6 °F 71.6 °F 66% 29.96 in 10.0 mi South 12.7 mph - N/A   Clear
10:15 AM 86.0 °F 91.8 °F 71.6 °F 62% 29.96 in 10.0 mi South 11.5 mph 17.3 mph N/A   Clear
10:35 AM 86.0 °F 91.8 °F 71.6 °F 62% 29.97 in 10.0 mi South 10.4 mph - N/A   Clear
11:15 AM 86.0 °F 91.8 °F 71.6 °F 62% 29.98 in 10.0 mi South 10.4 mph - N/A   Clear
11:35 AM 87.8 °F 93.8 °F 71.6 °F 58% 29.97 in 10.0 mi South 10.4 mph - N/A   Clear
11:55 AM 87.8 °F 93.8 °F 71.6 °F 58% 29.97 in 10.0 mi SSW 8.1 mph - N/A   Clear
12:15 PM 89.6 °F 94.7 °F 69.8 °F 52% 29.96 in 10.0 mi SE 10.4 mph - N/A   Clear
12:35 PM 89.6 °F 94.7 °F 69.8 °F 52% 29.96 in 10.0 mi South 12.7 mph 16.1 mph N/A   Clear
12:55 PM 89.6 °F 96.2 °F 71.6 °F 55% 29.96 in 10.0 mi SSE 9.2 mph 16.1 mph N/A   Clear
1:15 PM 91.4 °F 98.4 °F 71.6 °F 52% 29.96 in 10.0 mi SSW 8.1 mph 16.1 mph N/A   Scattered Clouds
1:35 PM 91.4 °F 98.4 °F 71.6 °F 52% 29.95 in 10.0 mi SE 5.8 mph 10.4 mph N/A   Clear
1:55 PM 91.4 °F 98.4 °F 71.6 °F 52% 29.95 in 10.0 mi South 11.5 mph - N/A   Scattered Clouds
2:15 PM 91.4 °F 98.4 °F 71.6 °F 52% 29.95 in 10.0 mi SSE 6.9 mph - N/A   Scattered Clouds
2:35 PM 91.4 °F 96.8 °F 69.8 °F 49% 29.95 in 10.0 mi SSE 11.5 mph - N/A   Scattered Clouds
2:55 PM 93.2 °F 98.8 °F 69.8 °F 46% 29.94 in 10.0 mi SE 9.2 mph 18.4 mph N/A   Scattered Clouds
3:15 PM 93.2 °F 98.8 °F 69.8 °F 46% 29.94 in 10.0 mi SSE 8.1 mph - N/A   Scattered Clouds
3:35 PM 95.0 °F 101.3 °F 69.8 °F 44% 29.93 in 10.0 mi SSE 3.5 mph - N/A   Clear
3:55 PM 95.0 °F 99.5 °F 68.0 °F 41% 29.92 in 10.0 mi SSE 9.2 mph - N/A   Scattered Clouds
4:15 PM 95.0 °F 99.5 °F 68.0 °F 41% 29.92 in 10.0 mi ESE 8.1 mph - N/A   Clear
4:35 PM 95.0 °F 99.5 °F 68.0 °F 41% 29.91 in 10.0 mi SSE 9.2 mph - N/A   Clear
4:55 PM 95.0 °F 98.5 °F 66.2 °F 39% 29.91 in 10.0 mi Calm Calm - N/A   Clear
5:15 PM 95.0 °F 98.5 °F 66.2 °F 39% 29.90 in 10.0 mi Calm Calm - N/A   Clear
5:35 PM 95.0 °F 97.0 °F 64.4 °F 36% 29.89 in 10.0 mi SSE 9.2 mph - N/A   Clear
5:55 PM 95.0 °F 98.5 °F 66.2 °F 39% 29.89 in 10.0 mi ESE 9.2 mph - N/A   Clear
6:15 PM 95.0 °F 98.5 °F 66.2 °F 39% 29.88 in 10.0 mi SE 6.9 mph - N/A   Clear
6:35 PM 95.0 °F 98.5 °F 66.2 °F 39% 29.88 in 10.0 mi SE 6.9 mph - N/A   Clear
6:55 PM 93.2 °F 96.2 °F 66.2 °F 41% 29.88 in 10.0 mi SE 4.6 mph - N/A   Clear
7:15 PM 91.4 °F 94.0 °F 66.2 °F 43% 29.87 in 10.0 mi Calm Calm - N/A   Clear
7:35 PM 91.4 °F 95.4 °F 68.0 °F 46% 29.88 in 10.0 mi SE 8.1 mph - N/A   Clear
7:55 PM 89.6 °F 93.4 °F 68.0 °F 49% 29.89 in 10.0 mi SE 8.1 mph - N/A   Clear
8:15 PM 87.8 °F 92.6 °F 69.8 °F 55% 29.89 in 10.0 mi ESE 4.6 mph - N/A   Clear
8:35 PM 86.0 °F 90.4 °F 69.8 °F 58% 29.89 in 10.0 mi Calm Calm - N/A   Clear
8:55 PM 86.0 °F 90.4 °F 69.8 °F 58% 29.90 in 10.0 mi SE 6.9 mph - N/A   Clear
9:15 PM 84.2 °F 89.6 °F 71.6 °F 66% 29.91 in 10.0 mi SE 6.9 mph - N/A   Clear
9:35 PM 82.4 °F 87.2 °F 71.6 °F 70% 29.92 in 10.0 mi SE 6.9 mph - N/A   Clear
9:55 PM 82.4 °F 88.2 °F 73.4 °F 74% 29.93 in 10.0 mi Calm Calm - N/A   Clear
10:15 PM 82.4 °F 88.2 °F 73.4 °F 74% 29.93 in 10.0 mi Calm Calm - N/A   Clear
10:35 PM 80.6 °F 85.4 °F 73.4 °F 79% 29.93 in 10.0 mi SE 6.9 mph - N/A   Clear
10:55 PM 80.6 °F 85.4 °F 73.4 °F 79% 29.93 in 10.0 mi Calm Calm - N/A   Clear
11:15 PM 78.8 °F - 73.4 °F 83% 29.93 in 10.0 mi Calm Calm - N/A   Clear
11:35 PM 78.8 °F - 73.4 °F 83% 29.93 in 10.0 mi Calm Calm - N/A   Clear
11:55 PM 78.8 °F - 73.4 °F 83% 29.93 in 10.0 mi Calm Calm - N/A   Clear